Redding, CA

1:10 AM PDT on October 18, 2017 (GMT -0700)
Redding Municipal

Weather History for KRDD - February, 2014

Change the Weather History Date:

Wednesday, February 19, 2014

  Actual Average Record
Temperature  
Mean Temperature 55 °F -  
Max Temperature 62 °F 61 °F 76 °F (1995)
Min Temperature 48 °F 40 °F 25 °F (2006)
Degree Days  
Heating Degree Days 10    
Cooling Degree Days 0    
Growing Degree Days 5 (Base 50)    
Moisture  
Dew Point 32 °F    
Average Humidity 49    
Maximum Humidity 74    
Minimum Humidity 23    
Precipitation  
Precipitation T in 0.20 in 1.34 in (2002)
Month to date precipitation 5.04 3.78  
Year to date precipitation 5.46 9.74  
Since 1 July precipitation 8.96  
Sea Level Pressure  
Sea Level Pressure 30.14 in    
Wind  
Wind Speed 6 mph (NW)    
Max Wind Speed 15 mph    
Max Gust Speed 19 mph    
Visibility 10 miles    
Events Rain    
T = Trace of Precipitation, MM = Missing Value Source: NWS Daily Summary

Daily Weather History Graph

Daily Weather History Graph

Search for Another Location

Airport or City:

Trip Planner

Search our weather history database for the weather conditions in past years. The results will help you decide how hot, cold, wet, or windy it might be!

Date:

Astronomy

Feb. 19, 2014 Rise Set
Actual Time 6:57 AM PST 5:49 PM PST
Civil Twilight 6:29 AM PST 6:17 PM PST
Nautical Twilight 5:57 AM PST 6:48 PM PST
Astronomical Twilight 5:26 AM PST 7:20 PM PST
Moon 10:49 PM PST (2/19) 9:05 AM PST (2/19)
Length of Visible Light 11h 47m
Length of Day
10h 51m
Waning Gibbous, 79% of the Moon is Illuminated
Feb 19
Waning Gibbous
Feb 22
Last Quarter
Mar 1
New
Mar 8
First Quarter
Mar 16
Full

Hourly Weather History & Observations

Time (PST) Temp. Dew Point Humidity Pressure Visibility Wind Dir Wind Speed Gust Speed Precip Events Conditions
12:53 AM 54.0 °F 42.1 °F 64% 29.99 in 10.0 mi WNW 5.8 mph - N/A   Overcast
1:53 AM 53.1 °F 45.0 °F 74% 30.00 in 10.0 mi SW 5.8 mph - 0.00 in Rain Light Rain
2:53 AM 52.0 °F 44.1 °F 74% 30.00 in 10.0 mi WSW 5.8 mph - 0.00 in   Overcast
3:53 AM 50.0 °F 43.0 °F 77% 30.04 in 10.0 mi Variable 6.9 mph - N/A   Partly Cloudy
4:53 AM 51.1 °F 33.1 °F 50% 30.07 in 10.0 mi WNW 10.4 mph - N/A   Clear
5:53 AM 51.1 °F 30.9 °F 46% 30.10 in 10.0 mi WNW 11.5 mph - N/A   Clear
6:53 AM 48.9 °F 30.9 °F 50% 30.11 in 10.0 mi NW 10.4 mph - N/A   Clear
7:53 AM 50.0 °F 32.0 °F 50% 30.15 in 10.0 mi NNW 6.9 mph - N/A   Clear
8:53 AM 53.1 °F 33.1 °F 47% 30.18 in 10.0 mi North 6.9 mph - N/A   Clear
9:53 AM 55.0 °F 36.0 °F 49% 30.18 in 10.0 mi NNW 6.9 mph - N/A   Clear
10:53 AM 55.9 °F 28.9 °F 36% 30.19 in 10.0 mi NW 5.8 mph - N/A   Clear
11:53 AM 59.0 °F 21.9 °F 24% 30.18 in 10.0 mi NNE 12.7 mph - N/A   Clear
12:53 PM 60.1 °F 23.0 °F 24% 30.15 in 10.0 mi North - - N/A   Clear
1:53 PM 60.1 °F 23.0 °F 24% 30.14 in 10.0 mi NW 6.9 mph - N/A   Clear
2:53 PM 62.1 °F 27.0 °F 26% 30.14 in 10.0 mi East 4.6 mph - N/A   Clear
3:53 PM 61.0 °F 25.0 °F 25% 30.13 in 10.0 mi Calm Calm - N/A   Clear
4:53 PM 59.0 °F 28.0 °F 31% 30.13 in 10.0 mi South 5.8 mph - N/A   Clear
5:53 PM 55.0 °F 30.0 °F 38% 30.14 in 10.0 mi Calm Calm - N/A   Clear
6:53 PM 51.1 °F 30.9 °F 46% 30.17 in 10.0 mi North 3.5 mph - N/A   Clear
7:53 PM 54.0 °F 27.0 °F 35% 30.18 in 10.0 mi North 6.9 mph - N/A   Clear
8:53 PM 48.0 °F 32.0 °F 54% 30.21 in 10.0 mi Calm Calm - N/A   Clear
9:53 PM 48.9 °F 30.0 °F 48% 30.23 in 10.0 mi NNW 4.6 mph - N/A   Clear
10:53 PM 48.9 °F 28.9 °F 46% 30.23 in 10.0 mi North 8.1 mph - N/A   Clear
11:53 PM 48.9 °F 28.9 °F 46% 30.22 in 10.0 mi NNW 6.9 mph - N/A   Clear